Regional Weather Roundup
Issued by NWS Binghamton, NY

Home | Current Version | Previous Version | Text Only | Print | Product List | Glossary On
Versions: 1 2 3 4 5 6 7 8 9 10 11 12 13 14 15 16 17 18 19 20 21 22 23 24 25 26 27 28 29 30 31 32 33 34 35 36 37 38 39 40 41 42 43 44 45 46 47 48
000
ASUS41 KBGM 230210
RWRBGM
RWRBGM
BINGHAMTON REGIONAL WEATHER ROUNDUP
NATIONAL WEATHER SERVICE BINGHAMTON NY
1000 PM EDT FRI MAY 22 2015

Note: "fair" indicates few or no clouds below 12,000 feet with no
significant weather and/or obstructions to visibility.

* = Station(s) that does not report precipitation, such as rain,
snow, etc, also no thunder or fog.

!NYZ009-015>018-022>025-036-037-044>046-055>057-062-230300
...CENTRAL NEW YORK...

CITY           SKY/WX    TMP DP  RH WIND       PRES   REMARKS
BINGHAMTON     CLEAR     45  24  43 NW12      30.18R
CORTLAND       FAIR      45  23  42 W5        30.22R
DANSVILLE      CLEAR     45  30  55 NW7       30.27R
ELMIRA         CLEAR     49  29  46 N7        30.22R
ITHACA         CLEAR     44  25  47 NW10      30.23R
MONTICELLO     CLEAR     48  32  53 NW7       30.14R
NORWICH        CLEAR     45  25  45 CALM      30.18R
ONEONTA        PTCLDY    45  19  36 W9G16     30.14R
PENN YAN       CLEAR     46  26  45 NW8G20    30.24R
ROME           MOCLDY    44  34  67 NW9       30.19R
SIDNEY         PTCLDY    50  30  46 W5        30.18R
SYRACUSE       PTCLDY    47  27  45 W13       30.20R
$$

!PAZ038>040-043-044-047-048-072-230300
...NORTHEAST PENNSYLVANIA...

CITY           SKY/WX    TMP DP  RH WIND       PRES   REMARKS
HAZLETON       CLEAR     54  30  40 NW8       30.19R
SCRANTON       CLEAR     55  34  45 N7        30.15R
$$
&&
KEY
WCI = WIND CHILL INDEX
VSB = VISIBILITY
HX  = HEAT INDEX
$$


USA.gov is the U.S. government's official web portal to all federal, state and local government web resources and services.